THOR 7

Last updated on Sun Apr 12 2026 00:02:53 GMT+0000 (Coordinated Universal Time)

1 40613U 15022A 26101.30664948 -.00000007 00000+0 00000+0 0 9990 2 40613 0.0101 178.3741 0002708 202.7320 288.1719 1.00271099 40146
UTC large
Height (km)
Speed (km/s)
/
Latitude / Longitude
Inclination (degrees)
Orbital Period (minutes)
Azimuth
Elevation
Range (km)
Doppler Factor

Next 0 passes for location: London (51.5072 / 0.1276)

Sorry there are no passes over London.
THOR 7